RH
71 72 72 70 69 68 65 60 52 46 43 43 43 39 31 23 20 22 23 23 25 27 26 26 26 27 25 22 23 30 42 52 57 61 66 65 60 53 45 37 28 20 14 6 3 3 3 3 3 3 3 3 3 3 3 3 3 3 4 4 5 5 5 6 6 6 6 6 6 6 6 6 6 7 7 6 5 4 3 3 3 3 3 3 3 3 3 3
48 50 53 54 54 51 44 35 27 22 21 20 20 18 17 18 21 24 25 28 34 33 28 25 25 30 32 30 25 23 32 45 54 60 65 63 59 54 46 38 28 19 12 6 3 3 3 3 3 3 3 3 3 3 3 3 3 4 4 4 5 5 6 6 6 6 6 6 6 6 6 6 6 7 7 5 4 3 3 2 2 3 2 3 3 3 3 3
24 27 31 33 32 28 21 15 12 12 13 14 16 18 21 22 24 24 26 34 39 35 27 23 21 26 34 36 33 26 26 38 52 62 64 61 59 55 49 42 32 22 12 5 3 3 3 3 3 3 3 3 3 3 3 3 3 4 4 5 5 5 6 6 6 6 6 6 6 7 7 7 7 6 6 4 4 2 2 2 2 3 2 3 3 3 3 3
13 15 17 17 16 13 11 9 9 10 12 15 18 20 21 21 22 21 26 35 38 36 31 28 26 26 31 32 32 28 25 37 54 62 63 61 59 55 51 46 38 29 16 5 3 3 3 3 3 3 3 3 3 3 3 3 4 5 5 5 6 6 6 6 6 7 7 7 7 7 7 7 6 5 4 3 3 2 2 2 2 2 2 3 2 3 3 2
9 8 9 9 10 9 8 7 7 7 8 11 13 16 17 17 17 17 24 33 34 36 33 31 30 29 29 27 26 24 29 45 52 54 58 58 56 53 48 44 38 32 20 8 4 3 3 3 4 3 3 3 3 3 3 4 4 5 6 6 7 7 6 6 7 7 7 7 7 8 7 6 5 3 3 2 2 2 2 2 2 2 2 2 2 3 2 2
7 7 7 7 8 8 7 6 6 6 6 6 7 9 10 10 12 15 21 27 30 35 35 33 35 36 38 39 38 36 43 55 52 48 54 53 53 53 48 43 35 27 18 11 6 4 4 5 7 7 6 4 3 3 3 4 5 6 6 5 6 6 6 7 7 8 8 8 8 7 6 5 4 3 3 2 2 2 2 2 2 2 2 2 2 2 2 3
7 6 6 6 7 7 6 6 6 6 5 5 5 6 6 7 10 13 16 20 25 33 36 35 39 44 48 53 56 56 61 66 60 56 57 56 56 55 50 42 29 16 10 8 6 4 5 5 7 9 8 6 4 4 5 6 7 7 6 6 6 6 7 7 8 8 8 8 8 7 6 4 4 4 3 2 2 2 2 2 2 2 2 2 2 2 2 2
6 6 6 6 6 6 6 6 5 5 5 5 5 5 6 8 9 10 12 15 22 32 37 38 42 47 53 59 66 71 73 74 70 66 63 60 58 53 48 40 25 13 6 5 4 4 5 5 5 7 7 7 6 6 6 7 7 6 6 6 7 7 8 8 9 9 9 8 8 7 6 5 6 6 5 4 4 3 3 3 3 3 2 3 3 3 3 3
6 6 6 5 5 5 5 5 5 5 5 5 6 7 9 12 15 16 19 23 29 38 45 47 48 48 53 62 73 77 74 71 69 66 62 58 49 39 32 27 21 13 9 8 9 9 7 5 5 5 5 6 6 6 6 7 6 6 6 6 7 8 9 9 9 9 9 8 8 7 7 7 8 8 7 7 6 5 5 5 5 5 5 5 5 6 6 7
6 5 5 5 5 5 5 6 6 6 6 7 9 11 15 20 24 26 33 40 44 51 60 65 64 60 61 67 75 75 65 60 60 55 50 46 35 22 13 11 11 9 8 10 14 17 16 11 7 5 5 5 6 6 6 6 6 7 7 7 8 9 9 9 9 9 9 9 9 8 9 10 10 10 10 10 9 7 7 7 7 8 7 8 8 8 9 9
6 6 6 6 7 7 7 7 7 7 8 10 13 16 20 24 28 33 43 52 58 66 77 84 85 84 84 83 82 74 61 57 54 48 42 35 24 13 8 6 6 7 8 10 11 15 17 15 10 6 6 6 6 6 7 7 7 8 8 8 9 9 10 10 10 10 10 10 10 9 11 12 11 11 12 11 11 9 9 8 8 8 9 9 10 10 10 10
8 8 8 8 8 9 10 10 10 10 11 14 18 21 25 30 34 41 51 61 68 76 86 94 96 98 96 89 82 72 62 59 53 45 38 30 20 14 11 8 7 10 13 14 10 9 10 10 9 8 7 7 8 8 8 8 8 8 9 9 10 10 11 11 10 10 10 10 11 9 11 13 13 11 12 13 12 11 10 9 9 9 9 9 10 11 11 11
8 9 10 10 11 11 12 12 12 13 14 17 22 28 33 38 45 52 60 68 74 81 89 95 98 100 92 75 67 63 59 57 52 42 31 23 19 16 14 12 11 12 14 13 9 7 7 7 8 8 8 8 9 10 10 10 10 10 10 10 10 11 11 12 11 11 11 11 11 10 10 13 14 12 12 13 12 12 11 10 10 9 9 10 11 11 11 11
10 12 14 14 14 14 14 14 15 15 16 18 22 28 34 39 47 56 64 68 73 80 88 94 96 98 90 70 61 59 55 52 46 36 23 16 16 15 15 14 12 10 9 9 8 8 8 8 8 8 9 9 9 10 10 11 11 11 11 11 11 11 11 11 12 11 11 10 10 10 9 11 14 13 12 13 12 11 11 11 11 10 10 11 12 12 11 11
16 17 18 18 18 16 16 16 16 16 16 18 22 28 36 41 47 57 68 71 73 78 83 89 90 90 89 79 71 66 61 53 40 28 18 14 15 16 15 13 10 8 7 8 8 9 10 10 10 10 10 10 10 11 11 11 12 12 11 11 11 11 11 11 11 11 10 10 10 10 9 10 13 13 13 12 12 11 11 13 13 11 10 10 10 11 11 10
22 22 21 21 21 19 17 17 18 19 21 24 28 34 40 45 50 58 68 75 79 79 80 84 84 82 82 80 78 75 70 57 38 26 21 19 19 17 13 9 7 7 9 9 10 11 12 11 11 11 11 11 11 11 11 12 12 12 12 12 12 12 12 11 11 11 10 10 10 10 9 10 12 14 14 12 11 11 12 14 13 12 11 10 9 9 10 10
27 26 24 23 23 21 18 18 19 22 27 33 38 43 47 52 59 64 70 78 82 82 83 83 82 78 69 65 66 67 65 54 38 29 26 27 25 17 11 8 8 10 11 11 11 11 11 11 11 11 12 12 12 12 12 12 12 12 11 12 12 12 12 12 11 10 10 10 9 9 9 10 12 15 16 14 11 10 12 13 12 11 10 10 9 9 9 9
31 29 27 25 24 22 19 19 23 27 32 40 44 48 55 61 66 71 74 77 79 83 86 84 82 73 56 47 44 42 45 42 35 28 23 22 19 13 10 10 11 11 11 11 11 11 11 12 11 12 12 12 13 13 13 12 13 13 12 12 12 12 12 12 11 10 10 10 9 9 9 9 11 14 16 15 12 11 11 11 10 9 9 9 9 9 9 9
34 32 30 27 24 23 23 23 27 33 38 44 48 51 58 65 69 73 75 77 80 84 85 85 81 67 46 34 26 23 26 26 24 21 16 14 13 14 16 17 15 12 11 11 12 12 12 12 12 13 13 12 13 13 13 13 13 13 13 12 12 12 12 12 11 10 10 9 9 9 9 9 11 13 14 14 13 11 10 10 9 9 9 9 9 9 9 8
39 36 32 28 24 23 27 28 28 34 40 44 49 54 63 70 72 75 74 76 81 80 79 80 75 59 41 31 26 23 22 20 19 18 17 17 18 19 19 17 14 12 12 12 13 13 12 12 12 13 13 12 12 12 12 13 13 13 12 12 12 12 12 11 11 10 10 9 9 9 9 10 12 13 12 11 12 11 10 10 9 9 9 9 9 8 8 8
45 41 35 29 24 20 26 31 29 33 41 44 49 57 67 74 72 70 68 66 66 62 60 64 63 52 40 33 31 30 29 26 26 24 22 21 19 18 14 12 11 10 11 12 12 12 12 12 12 12 12 12 12 12 12 12 12 12 12 12 12 11 11 11 10 10 10 10 10 11 10 11 12 11 10 10 10 10 10 10 9 9 9 8 8 8 9 9
49 45 39 32 24 18 23 31 31 34 42 46 51 57 63 66 63 59 54 47 43 40 36 37 40 40 38 36 36 35 33 30 27 23 18 14 12 11 10 9 9 9 9 10 10 11 11 11 11 12 12 12 12 12 12 11 11 11 11 11 11 11 11 10 10 9 10 11 11 11 10 11 11 10 10 10 10 10 10 10 9 8 8 8 9 10 10 11
53 49 43 34 25 16 19 31 34 37 43 48 51 54 55 53 46 41 38 32 27 25 22 18 17 21 26 29 30 28 25 22 22 19 16 13 10 9 9 9 9 8 9 9 10 10 10 11 11 11 11 11 11 11 12 11 11 11 11 11 11 11 10 9 10 9 10 11 11 11 10 10 10 10 10 9 9 9 9 9 8 9 9 10 11 12 13 13
56 51 44 34 23 16 19 30 36 36 39 45 50 49 49 47 39 31 27 24 22 21 21 16 11 11 14 16 16 15 14 13 14 15 15 13 11 10 9 9 8 9 9 9 10 10 10 10 10 11 11 11 11 11 12 11 11 11 10 11 11 11 11 11 11 11 11 11 11 10 9 9 10 10 9 9 9 9 8 9 9 11 12 13 14 14 14 14
56 50 43 30 19 15 20 31 42 42 34 34 45 48 46 46 42 35 28 23 22 22 21 19 16 14 14 15 14 15 14 12 11 10 10 10 9 8 8 8 8 8 9 9 9 9 10 10 11 11 11 12 12 11 11 11 11 10 10 11 11 11 12 12 12 11 11 10 10 10 9 9 9 9 9 9 9 8 9 10 12 14 14 15 15 15 15 15
54 47 39 26 16 14 22 36 51 59 48 31 31 38 39 37 35 35 33 28 27 26 23 21 20 18 17 17 17 16 15 14 13 11 10 9 9 8 8 8 8 8 8 9 9 9 10 11 12 12 12 12 12 11 11 11 11 11 11 12 12 12 12 11 11 11 10 10 10 9 9 9 9 10 10 10 10 10 10 12 13 14 14 15 15 15 16 17
51 43 34 21 13 14 24 41 58 74 75 52 29 22 23 22 20 21 23 23 23 25 26 24 21 20 18 17 16 14 13 13 13 13 12 11 10 9 9 9 9 9 10 9 10 11 12 12 12 12 12 11 12 12 12 12 12 12 12 12 12 11 11 11 10 10 10 9 9 9 9 9 9 10 12 13 12 10 11 12 13 14 15 16 16 18 19 21
46 35 26 17 14 18 28 49 68 81 88 77 49 25 14 12 13 13 12 12 12 16 21 21 18 17 15 14 13 12 12 11 12 13 13 13 11 10 10 10 11 11 12 12 12 13 13 12 12 12 12 12 12 12 12 12 12 12 12 11 11 11 10 10 10 9 10 9 9 9 10 11 11 12 14 14 13 12 12 13 14 16 17 19 21 22 25 28
40 27 20 15 16 23 36 59 78 82 82 80 66 43 26 18 16 13 11 9 9 10 12 13 12 12 10 9 9 10 11 11 11 12 13 14 14 13 12 12 13 13 13 13 13 13 12 12 12 12 12 12 12 13 12 12 11 11 11 10 10 10 10 10 10 10 10 9 9 10 11 11 10 13 15 15 14 14 14 16 20 23 26 28 28 28 30 34
32 22 17 16 20 34 52 70 78 73 69 67 62 50 37 27 20 16 13 10 10 10 10 10 10 9 8 7 8 8 10 11 11 11 12 13 14 14 14 14 14 14 14 13 12 12 12 12 12 12 12 12 12 11 11 11 11 10 10 10 10 10 10 10 11 11 11 10 9 9 10 10 10 13 17 18 19 20 21 24 29 35 39 38 35 34 35 38
24 19 17 18 32 53 71 82 76 62 55 51 46 39 32 26 21 18 15 11 11 10 9 9 8 7 7 7 8 9 10 10 10 11 11 12 12 12 13 13 13 13 13 12 12 12 12 12 12 12 12 11 11 11 11 11 11 11 11 11 11 10 11 10 10 10 11 10 9 9 10 10 12 15 18 23 29 32 33 36 40 45 47 43 39 38 39 40
18 16 17 27 55 78 87 89 79 60 46 37 31 28 25 22 17 14 13 9 8 8 7 8 7 7 7 8 9 10 10 11 11 12 12 12 12 12 12 12 12 12 12 12 12 12 12 12 11 11 11 11 11 11 12 11 12 12 12 13 12 11 11 10 10 10 11 11 11 12 13 13 17 21 23 28 35 40 45 48 51 51 46 40 38 38 39 39
15 15 19 35 68 90 92 91 86 74 62 51 42 37 34 27 16 10 8 6 6 6 6 6 6 7 8 9 11 11 11 12 12 12 12 12 13 13 13 13 12 13 12 12 11 11 11 11 11 12 12 12 12 12 12 12 11 11 12 13 12 12 12 10 10 11 12 13 13 14 17 19 22 27 30 33 37 41 47 50 50 45 39 35 34 34 35 36
15 20 28 44 72 90 89 88 87 85 81 73 66 60 53 38 21 10 7 5 6 6 6 6 7 7 9 10 12 12 12 13 13 13 13 13 13 13 13 13 12 12 11 11 11 11 11 11 12 13 14 14 14 14 13 13 13 12 13 13 12 13 13 12 12 13 14 16 17 19 23 25 26 30 33 33 34 37 39 40 38 34 31 31 32 35 39 43
19 28 36 53 77 88 85 83 82 80 76 71 68 65 57 42 25 13 8 6 6 6 6 6 7 8 10 12 12 12 13 13 13 13 13 13 13 12 12 11 11 11 11 12 12 12 12 12 13 14 15 15 15 15 15 14 14 13 13 13 13 14 15 14 15 17 18 19 20 24 28 27 27 29 31 30 28 30 32 30 28 28 32 37 43 49 57 65
30 42 50 63 80 85 81 76 72 67 62 59 58 56 50 40 25 12 7 6 6 6 7 8 9 10 11 12 13 13 13 13 13 13 12 12 11 11 11 11 12 12 13 14 14 14 13 13 13 14 16 18 17 16 16 15 14 13 13 14 15 15 17 17 18 21 23 22 22 24 28 31 30 29 28 27 26 26 28 29 32 41 50 57 65 73 80 85
44 57 65 74 80 77 70 63 56 52 48 47 47 43 37 28 17 8 6 7 7 8 9 10 12 12 12 12 13 13 12 12 11 11 10 10 10 11 12 13 14 14 15 15 15 15 14 13 14 16 19 20 18 16 16 15 14 14 15 18 19 20 22 24 22 23 25 24 23 25 31 37 36 30 25 24 25 28 34 43 53 63 72 80 87 90 92 95
58 63 65 67 65 58 54 50 47 44 41 37 31 25 19 13 8 7 8 9 10 11 12 12 13 12 12 12 12 12 11 11 10 10 10 11 12 13 14 14 15 15 16 16 16 18 16 14 14 16 19 18 16 15 15 14 15 17 20 22 24 25 27 28 27 26 26 25 24 26 29 31 28 25 25 29 37 46 55 66 76 85 92 96 97 97 99 101
58 55 53 53 50 48 47 42 36 29 23 18 13 9 8 8 8 10 11 12 13 13 13 13 12 12 12 11 11 11 10 10 10 10 11 13 14 15 15 16 16 16 18 18 19 20 19 16 15 16 17 16 15 15 16 17 18 20 22 24 26 29 30 30 32 33 32 29 26 22 21 25 28 33 43 54 63 71 78 87 95 100 101 100 100 102 99 88
48 48 49 47 42 37 31 22 15 9 7 7 6 7 9 10 11 13 13 14 13 13 12 12 11 11 11 11 10 10 10 10 11 12 14 15 16 16 16 17 18 19 20 20 21 21 20 18 15 15 15 15 16 17 18 20 21 22 23 24 26 29 30 29 30 30 27 23 21 22 29 42 53 63 74 82 84 87 93 99 102 102 102 102 101 90 71 50
50 50 44 36 26 18 12 7 5 6 6 8 9 10 11 12 13 13 13 13 12 12 11 11 11 11 10 10 10 11 11 12 13 15 16 17 17 17 18 19 20 21 22 22 22 20 18 16 15 15 15 17 20 21 20 23 26 26 27 28 29 29 26 22 18 19 24 30 40 51 59 68 80 90 94 92 90 88 89 94 100 102 100 91 75 52 33 24
48 37 24 17 11 6 5 6 7 8 9 11 12 12 12 13 13 12 12 12 11 11 11 11 11 11 11 11 11 12 13 14 16 17 17 18 18 19 20 21 22 23 23 21 20 18 16 15 15 16 17 19 24 25 23 25 27 27 28 27 25 22 20 23 30 41 54 66 79 86 87 89 96 100 97 93 93 93 93 95 96 87 72 53 36 24 19 20
27 16 9 7 6 6 8 10 11 11 12 13 13 13 13 12 12 12 12 11 11 11 11 11 11 12 12 13 14 15 15 16 17 18 19 20 21 22 24 24 24 23 21 19 18 17 17 17 15 17 19 21 24 24 22 22 22 21 19 16 17 25 39 55 71 80 81 86 95 98 98 101 102 99 97 98 100 101 97 85 68 50 35 24 19 18 19 19
11 7 6 7 7 9 11 12 12 12 12 13 13 13 13 12 12 12 12 11 11 11 12 12 14 14 15 16 16 17 18 18 19 21 22 23 25 25 25 24 22 20 18 17 17 17 20 22 20 18 18 20 21 21 18 16 15 15 17 22 34 51 68 80 89 91 87 88 96 99 96 99 103 103 101 99 92 81 66 47 32 24 19 17 18 19 18 18
7 7 7 10 11 11 12 12 12 12 12 13 13 12 13 12 12 12 11 12 12 12 14 15 16 17 18 18 20 21 21 22 24 25 25 26 25 24 22 20 18 17 17 17 18 19 22 26 25 21 19 17 15 14 13 14 20 30 40 50 60 69 78 84 89 93 92 91 98 102 97 95 99 98 88 74 57 41 29 21 18 18 17 17 18 18 19 20
7 9 10 11 12 12 12 12 12 13 13 13 13 12 12 11 11 12 12 13 15 16 17 18 19 20 21 22 23 25 26 26 26 25 25 23 22 20 18 17 17 18 19 20 21 21 22 23 21 17 14 14 15 22 31 40 50 58 62 65 70 78 88 96 97 99 99 95 97 100 93 82 73 63 49 36 25 19 18 18 18 18 18 19 21 23 27 31
9 11 11 11 11 11 12 12 13 13 12 11 11 11 11 12 13 15 16 17 18 19 20 22 23 24 26 26 27 27 27 25 23 22 20 19 18 18 18 18 20 21 21 21 20 18 16 15 13 14 20 29 38 48 57 61 62 63 67 75 84 92 100 103 102 102 99 91 84 78 65 50 37 29 24 21 18 18 19 19 20 22 25 29 34 38 40 40
10 11 11 11 11 11 11 11 11 10 10 11 12 13 14 16 17 19 20 21 22 24 25 28 29 28 28 27 25 23 20 18 18 18 18 18 19 19 20 21 21 20 18 15 13 11 11 15 22 32 44 51 54 58 60 62 66 72 81 94 100 100 102 100 96 90 80 67 57 47 34 24 19 19 19 17 17 19 23 27 32 37 39 40 41 38 33 29
10 11 12 11 10 9 9 10 10 11 13 15 16 17 18 20 22 24 25 26 28 30 31 30 28 26 22 19 16 16 16 17 19 20 20 21 20 20 19 17 15 13 11 11 13 16 23 34 42 46 49 50 51 59 65 69 78 84 90 97 98 94 90 82 70 59 48 38 31 26 22 18 17 18 18 21 27 33 37 40 40 36 32 27 24 20 16 13
11 10 9 8 9 10 11 13 14 16 18 19 20 22 24 26 27 28 30 32 33 32 29 25 20 16 14 13 14 16 17 18 19 19 18 17 15 13 11 10 10 13 17 22 30 37 41 45 43 40 45 53 61 71 74 71 75 82 86 88 84 75 66 55 43 34 28 25 21 18 18 19 20 25 31 37 41 40 36 31 23 18 14 11 10 9 7 7
9 9 9 11 12 14 16 17 19 21 23 24 26 28 29 29 30 33 35 33 30 24 20 17 14 13 12 13 14 15 16 15 14 13 12 10 10 9 10 14 20 27 35 40 42 42 38 38 40 45 58 70 75 78 77 71 71 77 78 71 62 53 45 35 27 24 23 22 20 20 25 31 37 42 44 40 33 24 18 13 9 8 7 6 6 6 5 6
11 12 13 14 15 18 21 23 26 27 27 28 29 29 30 33 36 35 30 24 20 19 18 17 15 13 12 12 12 12 12 11 9 9 10 10 13 16 21 29 35 39 41 38 35 34 36 45 55 62 69 77 78 79 81 76 72 70 62 51 42 36 30 24 21 20 21 23 29 36 41 44 42 36 29 23 17 12 9 7 7 6 6 5 6 6 7 8
Wind_Speed
17 17 18 18 19 19 20 21 21 21 21 22 22 22 22 21 19 18 18 19 20 21 22 22 23 23 22 22 22 22 21 20 19 19 18 18 18 18 17 17 16 16 15 15 14 15 15 16 17 17 16 16 16 16 16 16 16 16 16 17 17 18 18 19 20 20 21 22 21 23 24 24 24 25 29 30 31 32 32 33 32 29 29 30 30 29 30 31
17 18 18 19 19 20 20 21 20 20 19 19 19 19 18 17 17 17 17 18 18 18 20 21 21 21 21 21 21 21 21 20 20 19 19 18 18 18 18 17 16 16 15 15 15 15 16 17 17 17 17 16 16 16 16 16 16 17 17 18 18 19 19 20 21 20 22 23 22 23 24 26 26 27 29 32 32 31 32 32 31 30 30 30 31 31 31 32
15 16 16 17 18 18 18 18 17 17 17 16 16 16 16 16 16 17 18 18 17 17 17 18 18 18 19 20 20 20 20 20 20 19 19 19 19 19 18 18 17 16 16 15 15 15 16 17 18 17 17 17 17 17 17 17 17 17 18 19 19 20 21 21 22 21 22 23 23 24 25 27 29 29 30 31 32 32 32 31 30 31 31 31 32 32 33 33
13 14 15 15 16 16 16 16 16 16 15 15 15 16 17 17 18 18 18 18 17 17 17 16 15 15 16 17 18 18 19 19 19 19 19 19 19 19 19 18 18 17 16 16 15 15 16 17 18 18 17 17 17 17 17 18 18 18 19 20 20 21 22 22 23 22 23 24 24 24 26 28 30 30 30 30 31 32 32 30 29 31 31 31 32 33 35 35
13 13 13 14 14 15 15 15 16 16 16 16 17 18 19 20 20 20 19 18 18 17 17 16 15 14 14 15 16 16 17 18 19 19 19 19 19 19 19 19 19 18 17 16 16 16 16 17 18 18 18 18 18 18 18 18 19 19 19 20 21 22 22 22 23 23 23 24 25 25 27 28 29 29 30 30 31 32 31 30 30 31 31 32 32 33 34 35
12 12 13 13 14 14 15 16 17 17 17 18 19 20 21 21 21 20 20 19 19 18 17 17 15 14 14 14 14 14 16 17 18 18 18 19 19 19 19 19 19 18 18 17 16 16 16 17 18 18 18 19 19 18 18 18 19 19 20 21 22 23 23 23 23 23 23 24 25 26 27 28 28 28 29 30 31 32 31 31 32 31 32 33 33 33 34 36
12 12 12 13 14 14 15 15 16 17 17 18 18 19 20 20 20 20 20 20 20 19 18 17 16 15 15 14 14 15 15 16 17 18 18 18 19 19 19 19 19 17 17 16 16 16 16 17 18 18 19 19 19 19 18 18 19 20 21 22 22 23 23 23 23 23 24 24 25 26 27 28 27 27 29 29 30 31 31 31 32 33 33 34 35 35 36 37
10 10 11 12 13 13 14 15 15 16 17 17 17 18 18 19 20 20 20 21 20 20 18 18 17 17 16 16 16 16 16 17 17 17 18 18 18 19 19 18 17 16 16 15 15 15 16 17 17 18 19 19 20 19 19 19 19 21 22 22 23 23 22 22 23 23 24 25 26 27 27 27 26 28 30 30 30 30 31 31 32 34 35 35 36 36 38 39
7 8 9 10 11 11 12 13 14 15 15 16 16 17 17 17 18 18 19 19 19 19 18 18 18 18 18 18 17 17 17 17 17 17 17 18 18 18 18 17 16 16 16 16 15 16 16 17 17 18 18 18 19 19 19 19 20 21 22 22 22 22 22 22 23 23 24 25 26 27 26 27 27 28 30 31 32 31 31 32 33 34 35 36 37 37 39 40
5 5 6 7 8 9 10 11 12 13 14 14 15 16 16 17 17 17 17 18 18 18 17 17 18 18 19 18 18 17 18 18 18 18 18 17 17 17 17 16 15 15 15 16 16 17 17 17 17 18 18 17 17 18 18 19 20 21 22 21 21 21 21 22 23 24 25 25 26 27 26 28 28 28 30 31 33 33 33 34 34 35 36 37 38 39 40 41
3 4 5 6 7 8 9 10 11 12 13 13 14 15 16 17 17 17 17 17 17 17 17 17 17 18 18 19 18 18 19 19 18 18 17 17 17 16 16 16 15 15 15 16 16 17 17 18 18 18 17 17 17 18 18 19 20 20 21 21 21 21 21 22 24 24 25 26 27 27 26 28 30 30 29 30 33 35 35 36 36 37 37 38 39 40 41 42
3 3 4 5 6 7 8 10 11 12 12 13 14 15 16 17 17 17 17 17 17 16 16 16 17 17 17 17 17 17 18 18 17 17 17 16 16 16 16 16 16 16 16 17 17 17 17 17 17 17 17 17 17 18 18 19 20 20 21 21 21 21 21 22 24 25 26 27 28 28 26 26 30 31 29 30 33 35 37 38 39 39 39 40 40 40 41 42
3 4 5 6 7 8 9 10 11 12 13 14 14 15 15 16 17 17 17 17 17 17 17 17 17 17 16 15 16 16 17 17 17 16 16 16 15 15 15 16 16 17 17 17 18 17 17 17 17 17 17 17 18 18 19 20 21 21 22 22 22 22 21 22 24 26 27 28 29 30 28 26 29 32 31 31 33 35 37 38 40 40 41 41 40 41 41 42
4 5 6 8 9 10 11 12 13 14 14 15 15 16 16 16 17 16 16 17 18 18 18 18 18 17 17 16 16 16 16 17 16 15 15 15 15 15 15 15 16 17 17 18 17 17 17 17 17 17 17 18 19 19 20 20 21 22 23 23 23 23 23 22 23 26 28 29 30 32 31 28 29 33 34 35 36 37 38 38 39 41 41 40 39 39 41 41
6 7 9 10 11 12 12 13 14 15 16 16 16 16 17 17 17 17 16 16 17 17 18 19 18 18 18 17 17 18 18 17 16 15 14 14 15 15 15 16 16 17 17 17 17 17 17 17 17 17 18 19 19 20 20 20 21 24 24 24 24 25 26 25 25 27 29 30 32 33 33 31 30 33 35 37 38 39 38 37 40 41 41 41 40 39 40 42
7 9 10 11 12 13 14 15 15 16 16 16 16 16 17 17 18 18 17 16 16 17 17 17 18 18 17 17 18 19 18 17 16 15 14 15 15 15 16 16 16 16 17 17 17 17 17 18 18 18 19 20 20 21 22 22 22 24 26 26 26 27 28 28 28 30 30 31 33 34 34 33 33 34 37 39 40 40 37 37 40 40 40 41 41 41 41 42
8 10 11 12 13 14 15 15 16 16 16 16 17 17 17 17 17 18 17 17 16 16 16 16 16 16 15 15 16 16 16 16 16 16 15 15 16 16 16 16 16 17 17 17 17 18 18 18 19 19 20 20 21 23 23 24 25 26 27 26 27 28 29 30 31 32 32 33 35 36 36 35 34 34 35 39 42 41 38 37 40 40 39 41 42 43 43 43
10 11 12 14 15 15 16 16 16 16 16 16 17 17 18 18 17 17 17 17 17 16 16 16 16 15 13 13 13 13 14 15 15 16 15 16 16 16 16 17 17 18 18 18 18 18 18 19 19 20 21 21 22 24 25 25 26 28 30 29 29 29 30 32 33 34 35 36 36 38 38 37 36 34 35 38 41 42 40 39 40 40 41 42 43 45 45 45
12 13 14 15 16 16 16 16 16 16 16 17 17 18 18 18 17 17 17 17 16 16 15 15 15 13 12 11 12 13 14 14 15 15 15 15 16 16 17 18 18 19 19 19 19 20 19 19 20 21 22 22 22 24 26 27 27 29 31 31 32 32 32 33 35 36 37 38 38 39 40 39 38 36 37 38 39 40 41 41 41 42 43 44 45 45 46 46
13 14 15 16 17 17 17 17 17 17 17 17 17 17 16 16 15 14 15 14 13 13 13 13 13 12 11 12 13 14 15 15 15 15 16 16 17 18 18 19 19 20 20 20 20 21 21 20 20 22 23 24 24 24 26 28 29 30 31 32 33 34 34 35 37 38 39 39 39 41 42 40 38 38 39 39 39 39 41 42 43 44 44 45 45 45 46 47
14 15 16 16 17 18 18 18 18 17 17 17 17 16 14 13 13 12 11 11 9 9 10 10 10 11 12 13 14 15 16 16 16 16 17 18 18 19 20 20 20 21 21 22 22 22 22 22 22 23 24 25 26 27 28 29 30 32 33 34 34 35 37 38 39 39 40 40 41 42 42 41 40 39 40 41 40 40 41 43 44 45 45 46 46 46 47 48
15 16 16 17 17 17 18 18 17 17 16 16 15 14 12 11 11 10 9 9 9 9 9 11 11 12 13 14 15 15 15 16 16 17 18 18 19 20 21 21 21 21 22 23 23 23 24 22 23 24 26 27 28 29 30 32 33 34 35 35 35 36 39 40 40 41 41 42 42 42 43 41 40 41 41 42 42 43 43 44 44 45 46 46 47 48 49 50
16 17 17 18 18 17 17 17 16 16 15 14 13 12 11 10 10 10 9 8 9 10 11 12 12 12 13 13 14 14 15 16 17 18 19 19 20 20 20 21 22 22 22 23 24 25 25 24 25 26 27 29 30 31 32 33 34 35 36 36 36 37 40 41 42 42 42 43 43 44 43 42 41 42 42 43 44 45 45 45 46 46 46 47 48 49 50 51
17 17 18 18 18 17 18 17 16 15 14 13 12 11 11 11 10 10 9 9 10 11 12 12 12 12 13 14 15 15 16 17 17 18 19 20 20 20 20 21 21 21 22 24 25 25 25 26 27 29 29 30 31 32 33 34 34 36 36 36 37 38 40 41 42 43 43 43 44 45 44 43 43 44 45 46 47 47 47 48 47 47 48 49 50 51 51 52
17 18 18 19 18 17 18 17 16 14 13 12 11 11 11 11 11 11 11 11 11 13 13 13 13 13 14 14 15 16 16 17 17 18 19 20 20 20 20 21 21 21 22 24 25 26 26 27 29 30 31 31 32 33 33 34 35 36 37 37 38 39 39 40 41 42 43 43 45 45 46 47 46 47 48 49 49 49 49 49 48 48 49 49 50 51 51 51
18 18 19 18 17 17 17 16 15 14 12 12 11 11 10 11 11 12 12 12 13 14 14 13 14 14 14 15 16 16 16 17 17 18 19 20 20 20 21 21 22 22 23 24 25 26 26 27 29 30 31 31 32 33 34 34 35 36 37 38 39 39 39 40 41 42 43 44 45 46 47 49 47 47 49 49 49 51 50 49 48 48 49 49 49 50 50 50
18 19 19 18 17 16 16 15 14 13 13 13 12 11 11 10 11 12 12 13 13 13 13 14 14 14 15 17 17 17 18 18 18 19 19 20 20 21 21 21 22 23 24 25 26 25 26 28 29 30 31 32 32 33 34 34 35 36 36 37 38 39 40 41 42 43 44 45 46 46 48 49 49 48 49 50 50 52 52 51 51 50 49 49 49 49 49 49
19 20 19 17 16 15 14 14 14 13 13 13 13 12 11 11 12 12 13 13 13 13 13 13 14 15 16 18 18 18 18 18 19 19 19 20 20 21 21 21 22 22 23 25 26 25 26 28 29 30 31 32 32 33 34 34 35 36 36 37 38 39 41 42 43 44 46 47 47 47 49 49 49 50 50 51 52 52 52 51 51 50 49 49 48 48 48 48
20 20 19 16 15 14 13 13 12 13 13 13 12 12 12 12 13 13 14 14 13 13 13 14 15 16 17 18 18 19 19 19 19 19 20 20 20 21 21 21 22 22 23 25 26 26 27 28 29 30 31 32 32 33 33 34 35 36 37 38 39 41 42 43 45 46 48 49 48 49 50 50 50 50 49 50 51 51 51 50 48 48 48 47 47 48 48 48
20 19 17 15 13 13 12 11 12 12 11 12 12 12 13 13 14 14 14 14 14 14 15 15 16 16 17 18 18 19 19 19 19 19 20 20 20 21 21 21 22 23 24 26 26 26 27 28 29 30 31 31 32 33 34 35 36 37 38 39 40 42 43 44 46 47 48 49 50 50 51 52 52 49 48 48 47 47 48 47 46 46 45 46 47 48 48 48
19 17 15 13 11 11 10 10 11 11 11 11 11 12 13 13 14 15 15 15 15 15 15 15 15 17 18 18 18 18 18 18 19 19 20 20 21 21 22 22 22 23 25 26 26 26 27 28 29 30 30 31 32 33 34 36 37 38 40 41 43 44 45 47 48 49 50 51 52 52 52 53 51 47 46 44 41 42 43 44 45 45 45 46 47 47 48 48
17 15 12 10 9 9 9 10 10 11 11 11 12 12 13 13 14 15 15 16 16 16 15 15 16 18 18 18 18 18 18 18 18 18 19 19 20 21 22 23 23 23 25 26 26 26 27 27 28 29 30 31 32 34 36 37 38 39 41 42 44 46 47 48 49 50 50 51 51 51 50 50 47 45 43 41 40 41 41 42 44 44 45 46 47 48 48 49
14 12 10 9 8 9 9 10 10 10 11 11 12 12 13 13 14 14 15 16 16 16 16 16 17 19 19 18 17 17 17 17 18 18 19 19 20 21 22 23 24 24 25 26 27 27 28 28 28 30 31 32 34 36 37 39 41 42 43 44 46 47 48 49 50 49 49 49 49 48 47 47 45 43 41 40 41 42 42 42 43 44 46 46 47 48 48 49
11 10 9 9 9 9 10 10 10 10 11 11 12 13 13 14 14 15 15 16 17 16 16 16 17 18 19 18 17 17 17 18 18 18 19 20 20 21 22 23 24 25 26 27 28 28 29 29 30 31 32 34 36 37 39 41 42 43 44 45 46 46 47 49 49 49 48 47 47 46 44 44 45 43 41 40 41 42 42 43 45 46 46 47 48 49 49 51
9 9 9 9 9 10 10 11 11 11 12 13 13 14 15 15 15 16 16 16 16 16 17 17 17 18 18 18 18 18 18 18 19 19 20 21 22 22 23 23 24 25 26 28 29 30 31 32 33 34 35 36 38 39 40 42 43 44 44 45 45 45 46 46 46 46 46 46 46 44 43 43 43 43 42 42 42 42 43 45 46 47 47 48 49 51 52 53
7 7 7 8 9 10 11 11 12 13 14 14 15 16 16 16 16 16 16 16 16 16 16 17 17 17 18 18 18 19 19 19 20 20 20 22 23 23 23 24 25 25 27 28 30 32 33 34 36 37 38 39 40 41 42 43 43 44 45 45 45 44 44 45 45 44 44 45 45 44 43 44 44 44 44 44 44 44 46 48 48 48 48 50 52 53 54 55
5 6 6 8 9 10 11 12 13 14 15 15 15 16 16 16 16 16 16 16 16 16 16 16 16 18 18 18 19 20 21 20 21 22 22 22 23 24 24 25 26 27 29 30 32 34 36 36 36 38 39 40 41 41 42 42 43 43 43 42 42 43 43 43 44 43 43 45 44 42 42 43 43 45 47 47 46 47 49 50 50 50 52 54 55 56 57 56
5 5 6 7 9 10 11 12 12 13 13 14 14 14 15 15 15 15 16 16 16 16 17 17 17 18 19 19 19 21 22 22 22 23 23 24 24 25 26 27 28 30 31 33 35 36 38 39 38 38 40 40 41 41 41 42 41 40 40 39 40 41 41 42 44 44 44 45 45 43 42 43 44 45 48 49 50 51 52 52 52 52 54 56 57 58 57 57
5 5 6 7 8 9 10 11 11 12 12 12 13 13 14 15 15 15 15 16 16 17 17 18 19 19 20 21 21 21 23 24 24 24 25 25 26 27 28 29 31 32 34 36 37 38 40 41 40 39 40 41 41 40 40 40 40 39 38 38 38 39 40 41 41 42 44 45 46 45 45 45 46 46 48 51 52 54 54 53 53 54 55 56 57 56 56 57
5 6 7 8 8 9 10 10 11 11 11 12 12 13 13 14 15 15 16 16 17 18 19 20 20 21 21 22 23 23 23 24 25 25 26 27 28 29 30 32 34 35 37 38 39 40 41 42 42 40 40 41 40 40 39 38 39 39 38 38 38 38 39 40 40 40 42 44 45 46 46 46 47 49 50 51 54 55 55 55 54 55 56 56 56 56 57 59
6 6 7 8 8 9 9 10 10 10 11 11 12 13 14 15 15 16 17 17 18 19 20 21 22 22 23 24 24 25 25 24 25 26 27 28 30 32 33 35 36 38 39 39 40 41 42 43 42 40 40 39 38 39 38 37 37 37 38 38 39 39 40 41 41 41 42 44 44 46 48 47 48 50 52 54 56 57 57 56 56 56 56 56 57 58 59 61
6 6 7 8 8 9 9 10 10 10 11 12 13 14 15 15 16 17 18 19 20 21 22 23 24 25 25 25 26 26 26 26 26 28 29 31 33 35 36 38 38 39 40 41 41 42 42 42 40 39 38 37 36 36 36 35 35 36 36 37 37 39 40 41 42 43 44 46 45 47 50 50 50 53 55 57 57 58 59 58 57 57 58 59 59 60 61 62
6 6 7 8 8 9 9 10 10 11 12 13 14 15 16 17 18 19 20 21 22 23 24 25 25 26 26 26 26 27 28 28 29 30 32 34 36 37 38 39 40 40 41 41 41 40 40 40 39 37 36 35 34 35 36 35 35 36 37 37 36 37 39 41 43 45 47 48 48 49 50 49 51 54 56 57 57 57 58 58 59 60 61 61 62 62 64 65
6 7 7 8 9 9 10 10 11 12 13 14 15 16 17 19 20 21 22 23 23 24 25 25 25 26 26 27 28 29 30 31 32 33 35 37 38 39 40 40 41 41 41 40 38 37 37 37 38 37 36 35 34 36 37 37 36 37 39 39 38 38 40 42 44 46 49 50 50 51 51 50 51 53 54 56 56 56 56 58 59 61 62 62 64 65 67 68
6 7 7 8 9 10 11 12 13 14 15 16 17 18 20 21 22 23 23 24 24 24 25 25 26 27 28 30 31 32 33 35 36 37 38 39 39 40 41 41 40 39 38 37 36 35 34 33 35 36 37 36 36 37 39 39 37 37 39 41 42 42 43 44 46 48 49 50 50 50 51 52 51 52 53 55 55 54 55 57 59 61 62 64 66 68 70 71
6 7 8 9 10 11 12 13 14 16 17 18 19 20 21 22 23 23 24 24 25 25 26 28 29 31 32 32 33 35 36 37 39 39 40 40 40 40 39 38 37 36 35 34 34 33 32 31 32 34 34 35 36 36 38 40 40 40 41 43 44 45 45 45 46 47 48 49 48 48 50 51 50 52 55 55 55 56 58 59 61 63 65 67 69 71 74 75
6 7 9 10 11 13 14 15 17 18 19 20 20 21 21 22 22 23 24 26 27 28 30 31 33 34 34 35 36 37 38 39 40 40 40 39 38 37 36 35 34 33 32 32 32 32 32 30 31 32 32 34 35 36 39 42 43 44 44 44 45 45 45 45 45 45 46 47 47 47 49 50 50 53 56 57 57 60 61 63 66 67 69 72 74 76 78 79
8 9 11 12 14 15 16 17 18 19 19 19 20 21 21 22 24 25 27 28 30 31 33 34 35 36 37 38 39 38 38 38 37 37 36 35 34 33 32 31 31 31 31 31 31 32 31 30 31 31 32 34 37 39 41 43 44 45 45 44 45 45 44 43 43 43 45 46 47 48 49 51 53 55 57 59 61 63 65 68 70 72 74 76 78 79 81 82
10 12 13 14 15 16 17 17 17 18 19 20 21 22 24 25 27 28 30 31 33 34 36 37 39 39 39 38 37 36 34 33 32 31 31 30 30 30 30 29 30 30 30 30 30 31 31 31 33 33 34 37 39 40 42 44 44 44 44 43 44 44 43 43 42 43 44 46 48 49 50 52 55 57 58 61 64 67 69 71 73 75 77 79 81 83 85 87
12 13 14 15 15 16 16 17 18 19 21 22 24 25 26 28 29 31 33 35 37 39 40 39 38 36 34 32 31 30 30 29 28 28 28 28 28 29 29 28 28 28 29 30 30 32 33 34 36 37 38 39 40 40 42 44 43 43 43 42 42 43 43 43 43 44 46 47 49 50 51 53 56 59 61 64 66 69 72 74 76 78 81 84 87 88 90 92
13 13 13 14 15 16 18 19 20 22 23 24 25 27 28 30 32 34 37 39 40 39 37 33 31 29 29 28 28 28 27 27 28 28 28 28 28 28 28 28 28 29 30 31 33 35 37 38 39 40 40 40 41 41 42 44 44 43 41 40 41 42 43 44 45 46 48 50 51 53 55 57 59 61 63 65 68 71 75 79 83 84 86 89 91 93 94 95
12 13 14 16 17 18 20 21 23 24 25 26 27 29 30 32 35 38 39 38 36 32 29 27 27 27 27 27 27 27 27 27 27 27 27 27 27 27 28 29 30 31 32 34 36 37 39 40 41 41 40 40 40 41 42 43 44 43 40 39 41 42 43 44 46 48 50 52 55 57 60 62 64 65 67 68 70 74 78 84 88 90 91 92 93 94 94 92
Wind_Direction
261 263 263 264 266 268 270 273 275 277 277 277 278 279 281 282 282 282 283 285 286 286 285 283 281 280 279 277 274 271 271 272 276 278 280 281 281 282 282 282 282 284 284 283 278 271 266 263 262 260 256 253 252 254 258 263 266 270 274 276 277 278 280 281 281 284 284 285 286 287 287 286 286 289 289 288 288 287 285 281 277 277 275 272 273 272 276 277
261 262 262 262 264 267 270 273 275 276 277 277 278 279 280 281 283 286 288 288 289 289 288 285 281 278 277 277 274 271 268 268 271 274 277 278 280 281 281 281 282 283 283 281 276 270 267 265 263 262 261 259 258 260 263 266 269 272 276 278 280 281 282 283 284 286 286 287 287 288 288 288 288 290 292 290 289 288 283 280 280 279 276 275 277 276 277 279
260 260 260 261 264 267 270 273 276 277 278 280 279 279 280 282 285 287 289 290 292 294 293 290 282 276 274 273 272 269 266 265 267 270 273 275 277 280 282 283 283 283 281 279 275 270 268 266 266 265 264 263 263 265 267 269 271 275 278 280 282 283 285 286 287 288 288 288 288 288 289 290 292 292 293 292 290 286 282 283 285 283 278 278 282 281 278 281
261 261 262 264 266 269 272 276 279 280 281 281 280 280 280 282 285 287 288 288 293 294 293 293 287 279 275 273 272 267 264 263 263 266 269 271 274 278 281 283 284 282 279 276 272 269 268 267 267 266 266 266 266 268 270 272 274 278 280 282 285 286 288 290 289 289 288 288 288 290 291 293 294 295 294 292 290 285 283 287 287 285 283 280 283 285 282 283
263 264 266 268 270 273 277 280 283 283 283 281 279 278 279 281 282 284 284 286 290 290 287 288 286 281 278 275 272 267 263 261 261 262 264 268 271 275 278 281 281 280 277 273 270 268 268 268 267 267 268 268 269 271 272 275 277 281 283 284 286 287 289 290 289 288 288 289 290 292 294 295 296 296 294 292 289 287 288 290 287 286 286 282 282 286 285 285
267 269 272 273 276 278 281 284 285 286 285 283 281 280 279 280 281 282 283 284 287 286 283 281 281 279 276 275 273 269 264 261 261 261 262 265 269 272 275 276 277 276 274 272 270 268 268 268 268 267 268 269 271 272 274 277 280 284 286 286 287 288 289 289 288 288 289 290 292 294 296 297 298 297 293 292 291 291 291 291 289 287 286 284 283 284 286 286
268 272 275 277 278 281 282 284 285 287 288 287 286 284 284 283 282 282 282 283 284 283 279 277 277 275 273 272 270 268 265 262 262 262 263 266 268 270 271 272 272 272 272 271 270 269 270 270 269 267 266 268 271 273 275 279 283 286 288 288 288 289 289 288 288 289 290 292 294 295 296 297 297 295 293 292 292 292 292 291 290 288 288 288 287 287 288 288
267 270 273 275 277 280 282 284 286 287 289 289 289 288 287 287 285 284 282 281 280 279 277 274 272 271 270 269 268 266 265 264 263 264 264 265 267 268 268 268 269 270 270 269 270 271 272 271 269 267 266 267 269 273 277 281 285 286 286 287 287 288 288 288 289 291 292 294 295 295 296 296 296 295 293 293 292 291 291 291 291 290 290 291 291 291 290 290
264 267 269 272 276 278 281 284 286 287 288 289 289 289 288 288 287 286 283 281 279 277 276 273 270 269 269 267 266 265 264 264 264 264 264 264 265 266 267 267 266 267 269 269 270 272 274 273 271 268 267 267 269 273 277 280 283 284 284 286 286 287 288 289 290 291 293 294 294 294 296 296 295 295 295 296 295 293 293 293 293 292 293 293 293 293 293 292
259 263 267 271 275 279 282 285 287 289 290 291 290 291 291 290 288 287 285 283 281 278 275 273 270 269 268 266 265 264 263 264 264 264 264 263 263 263 265 266 265 266 268 269 270 270 271 272 272 270 269 270 272 275 278 280 282 283 284 284 285 286 287 288 290 291 292 293 293 294 296 296 295 294 295 297 296 296 295 294 294 294 294 294 295 295 295 295
261 268 272 277 281 284 287 289 291 292 293 293 292 292 292 290 288 286 285 284 282 279 275 272 270 269 267 266 264 263 264 265 265 265 263 262 261 262 264 265 265 265 267 269 268 267 267 268 270 270 270 272 275 277 279 280 280 281 282 283 284 284 286 287 289 290 291 292 292 293 296 297 295 295 297 297 297 297 297 296 296 296 296 296 297 297 296 296
285 287 288 290 291 294 296 296 297 298 297 295 292 291 289 288 287 285 284 283 282 279 276 273 271 270 267 266 263 262 264 266 266 265 263 262 261 262 264 265 264 263 265 266 266 265 265 266 268 270 272 274 276 277 279 280 280 281 281 281 282 283 286 288 289 291 292 293 293 293 296 298 297 296 298 297 297 297 297 298 298 297 297 297 297 297 296 296
304 304 306 306 306 307 307 306 306 304 302 299 294 291 289 287 286 284 283 282 281 279 277 276 275 274 269 265 263 262 264 266 266 265 264 263 262 261 263 263 263 262 262 263 264 266 267 268 270 272 274 275 275 276 278 279 280 280 280 281 282 282 284 287 290 292 293 294 295 294 294 298 298 296 297 297 296 296 296 297 298 297 298 298 298 298 296 295
324 325 323 322 321 318 316 313 309 307 305 302 297 293 290 288 286 284 282 281 280 279 278 277 277 277 271 264 263 264 265 267 268 266 264 263 262 261 261 261 262 262 262 263 265 268 270 271 273 274 275 275 274 275 276 277 278 278 278 280 283 283 283 285 288 289 291 293 294 294 294 297 299 297 298 298 297 296 296 297 297 296 297 297 298 298 296 296
338 335 332 329 326 322 318 313 310 307 305 302 298 294 290 287 286 282 280 279 279 278 277 277 277 276 274 268 266 267 267 267 268 266 263 262 261 261 261 262 262 263 264 265 267 269 271 273 275 275 275 275 275 275 275 275 277 279 280 282 283 284 285 286 287 287 290 293 294 294 295 298 300 299 298 298 297 297 298 300 298 297 298 298 297 297 297 297
340 336 331 328 324 320 317 312 309 306 303 300 298 296 292 287 284 281 279 277 278 279 277 276 275 273 274 272 270 269 268 266 265 265 263 262 261 261 262 263 263 263 264 265 267 269 271 272 274 274 275 275 276 277 277 277 277 278 280 283 285 287 288 289 290 291 293 294 295 295 296 299 301 302 301 299 297 298 301 300 298 299 300 299 298 298 299 299
336 331 327 324 321 317 313 310 307 304 302 301 299 298 294 290 285 282 279 277 278 280 278 277 274 272 274 274 274 274 270 265 264 265 264 263 262 262 263 264 264 263 264 265 267 270 273 274 275 276 277 278 278 279 279 280 281 281 280 281 284 286 289 291 291 292 295 295 295 295 296 297 300 302 302 299 298 299 301 299 298 299 299 298 299 299 300 301
331 328 325 321 317 314 311 308 306 304 303 303 302 299 294 290 286 284 282 280 279 281 281 280 276 273 275 277 279 280 275 270 268 267 265 263 263 263 264 265 265 265 265 267 270 271 274 278 279 279 279 279 281 283 284 284 285 286 286 286 286 288 292 294 293 294 296 295 295 297 296 297 300 302 300 298 299 300 301 300 299 300 300 300 301 301 301 301
327 325 322 318 315 313 311 310 308 306 305 305 306 303 297 291 287 286 286 285 284 283 284 282 277 273 274 279 285 285 281 277 272 269 267 266 267 267 267 267 267 267 267 268 271 273 274 277 280 281 281 280 281 284 286 287 286 286 288 290 291 292 293 295 294 295 296 295 297 297 297 298 301 302 300 299 300 301 301 301 301 301 301 302 302 302 302 302
322 320 318 317 315 313 311 310 309 307 307 308 309 307 301 293 290 290 291 292 291 290 289 285 279 276 277 281 287 288 284 280 276 272 270 270 270 271 271 271 270 270 269 268 269 272 274 276 279 280 282 283 284 284 285 285 287 287 288 290 292 292 293 293 293 294 296 296 297 297 297 299 302 302 300 299 300 300 300 301 301 302 302 302 302 302 302 301
319 318 317 316 314 312 309 308 308 308 308 310 312 312 306 300 298 299 301 303 303 300 299 295 289 284 283 284 287 287 284 281 277 275 274 273 273 274 274 273 272 271 270 269 269 270 274 277 281 283 285 288 290 289 288 288 289 290 291 291 292 293 293 293 294 295 297 297 298 297 297 300 302 301 300 300 301 301 301 301 302 302 302 302 302 302 301 300
318 317 317 316 313 310 308 306 306 307 309 312 315 316 314 310 309 308 308 310 309 311 310 305 300 293 290 289 288 286 283 280 277 276 276 277 277 277 276 275 273 271 270 271 272 272 275 280 284 286 289 291 293 293 292 292 292 292 292 292 293 295 294 294 295 296 297 298 298 298 298 301 302 302 302 301 301 301 301 302 302 302 302 303 302 301 300 299
317 317 316 315 312 310 307 305 303 305 309 314 317 318 316 314 313 311 310 308 308 311 309 304 302 298 295 293 290 287 283 279 277 276 278 279 281 281 279 277 275 274 274 273 275 277 280 284 287 288 290 292 293 293 293 293 293 293 294 295 297 297 296 296 297 297 298 299 299 298 299 301 302 302 301 300 301 302 303 303 304 304 304 303 301 300 300 300
316 315 314 313 311 309 305 302 300 301 306 313 316 315 313 311 310 307 305 304 306 308 305 301 298 295 294 293 292 291 288 284 281 280 281 282 284 283 281 279 277 278 278 278 279 281 285 289 291 291 293 293 293 294 294 294 295 295 296 297 298 297 297 298 298 298 299 299 299 300 301 301 303 303 302 301 303 303 304 305 305 305 304 303 301 301 300 299
314 314 313 311 310 307 303 300 298 297 302 309 311 312 311 309 307 304 301 301 304 308 305 300 297 295 295 295 295 295 294 292 289 286 285 284 284 284 283 282 281 281 282 283 283 285 288 290 291 292 294 295 296 296 297 297 297 297 298 298 297 297 298 298 299 299 299 300 300 302 303 303 305 307 305 304 304 304 305 305 305 304 302 301 300 300 299 299
312 312 311 310 308 304 300 297 295 294 299 303 305 307 307 308 308 307 303 299 302 305 304 300 299 299 300 301 301 301 300 298 296 293 290 289 287 286 286 286 285 286 286 285 286 288 290 291 292 294 296 297 298 298 299 299 298 298 299 299 299 299 300 300 300 300 300 301 302 304 304 304 305 306 304 304 303 303 303 303 303 301 300 300 299 298 298 299
312 311 311 310 307 301 298 295 293 293 296 298 300 302 303 307 311 311 308 305 302 302 301 299 301 303 304 305 306 306 305 304 301 299 297 294 292 291 290 290 289 290 290 288 289 292 293 294 296 297 298 299 299 299 299 299 299 299 299 299 299 300 300 301 301 301 301 301 302 304 303 303 304 303 302 303 302 302 302 303 302 301 301 300 299 299 299 299
312 311 310 309 305 300 296 295 294 294 296 295 296 298 299 302 308 311 312 311 307 303 301 301 303 305 307 308 310 310 310 308 306 305 303 300 297 295 294 294 293 293 294 292 293 297 297 298 299 299 299 299 299 299 299 299 300 300 300 300 300 301 301 301 300 301 301 301 303 303 302 303 303 303 303 304 304 304 304 303 303 303 302 300 300 300 300 299
312 310 308 306 303 299 295 294 294 297 300 298 294 295 296 298 302 308 313 314 311 306 303 303 305 307 310 313 313 313 312 311 309 308 306 304 302 299 299 298 297 297 297 295 297 301 300 300 300 299 299 300 300 300 300 300 300 300 300 300 301 301 301 301 301 301 301 302 303 301 301 301 302 304 306 306 306 307 306 304 304 303 301 300 301 300 300 300
309 307 304 302 301 299 295 294 295 298 302 300 297 297 297 297 299 304 310 313 310 307 304 304 306 309 314 316 314 314 313 311 310 308 306 305 305 303 302 301 300 300 299 298 300 302 301 301 301 300 300 300 300 300 300 301 301 301 301 300 301 301 300 300 300 300 300 301 301 301 301 302 303 307 309 309 309 308 305 304 303 301 300 300 300 300 300 300
307 303 298 297 299 298 295 296 299 301 302 300 300 301 302 302 300 302 307 309 309 308 305 304 307 311 315 317 315 315 314 312 311 308 306 305 305 304 303 302 301 301 299 299 300 300 300 301 300 300 301 301 301 301 301 302 302 302 302 301 301 301 300 300 300 301 301 302 302 303 303 304 306 308 309 309 309 305 302 301 300 300 301 301 300 300 301 300
304 299 291 290 296 297 296 300 304 306 305 303 304 305 306 307 306 304 306 309 311 310 307 307 309 312 315 316 316 315 313 312 311 308 306 306 304 304 303 302 302 301 299 299 299 299 299 299 300 300 301 302 302 302 301 301 301 301 301 301 301 301 301 301 302 302 303 303 304 304 304 305 307 307 307 307 305 302 301 301 300 301 301 301 301 301 300 300
301 295 285 281 289 296 299 304 308 310 311 310 309 309 310 312 310 307 308 310 312 312 310 310 311 313 315 315 315 314 312 310 309 307 306 305 304 304 303 302 302 302 301 300 300 300 300 300 301 302 302 303 302 302 302 302 302 302 302 302 302 302 302 302 303 303 303 303 303 303 305 306 306 305 305 304 301 299 300 300 300 300 300 300 300 299 299 299
297 291 282 277 285 298 305 308 309 311 315 315 313 312 313 315 314 312 312 311 312 312 311 312 312 312 313 314 313 312 310 308 307 306 305 304 303 303 303 302 302 302 302 302 302 301 301 301 303 304 304 304 303 303 303 303 302 303 303 303 303 303 302 302 303 302 303 303 302 303 305 305 304 304 304 301 298 299 300 299 299 300 300 300 299 298 298 298
294 289 279 276 285 300 309 311 310 310 312 312 311 311 312 316 318 316 315 313 312 312 311 312 312 311 312 313 312 310 309 307 306 306 305 304 304 303 303 302 302 302 303 303 303 303 303 303 305 306 306 306 305 304 304 303 303 303 303 302 302 302 301 301 301 301 301 301 302 304 304 303 303 303 302 301 301 302 301 300 299 300 301 300 299 298 298 298
297 289 281 279 286 299 306 308 309 308 308 307 306 307 309 312 316 316 315 313 312 311 311 312 313 311 311 311 310 309 308 308 307 306 305 304 304 304 304 303 303 303 304 304 305 305 304 305 307 308 308 308 307 306 305 304 303 303 303 302 302 301 301 300 300 300 301 301 302 305 305 305 306 305 305 305 305 304 302 300 301 302 302 300 299 299 299 299
304 292 287 286 290 297 302 304 306 306 305 304 304 305 307 310 314 315 314 313 312 312 312 312 311 310 309 309 308 307 307 308 307 306 306 304 304 305 304 305 305 305 305 305 306 306 305 305 306 308 308 307 306 305 305 304 303 303 302 302 302 301 301 300 300 301 302 302 303 305 306 307 307 307 307 307 306 304 302 303 304 304 303 302 301 301 301 300
309 301 295 294 297 301 303 304 306 306 306 305 305 307 309 312 315 314 313 312 312 313 312 311 310 308 308 308 308 307 307 307 306 306 306 305 305 305 305 306 306 306 306 306 306 306 306 305 306 307 307 306 305 305 304 303 302 301 301 301 301 301 301 302 303 304 304 304 305 306 307 306 306 307 307 307 306 304 304 305 306 305 304 302 302 302 302 301
313 311 309 308 308 307 306 307 308 308 308 308 308 311 313 314 315 314 313 312 312 312 311 310 310 308 308 307 307 307 307 307 307 306 306 306 306 306 307 307 307 307 307 307 307 307 307 306 307 307 307 306 305 304 303 302 300 300 300 300 300 301 302 303 305 306 306 306 307 308 308 308 308 309 308 307 305 305 305 306 306 304 303 302 302 302 302 302
318 318 316 315 312 310 309 309 310 311 312 313 313 314 315 314 314 313 312 312 310 310 309 309 308 308 308 308 307 307 307 307 307 307 307 306 306 307 307 307 307 307 307 307 307 307 307 306 307 307 306 305 304 303 302 302 302 302 302 302 302 301 302 303 304 305 305 306 307 308 309 309 310 309 307 305 304 304 305 305 304 303 302 302 302 302 302 302
323 319 314 314 313 312 312 312 313 315 315 315 315 315 315 314 314 313 312 311 310 309 309 308 308 307 307 307 306 307 307 307 306 306 306 305 305 306 307 307 307 307 307 307 307 307 307 306 307 307 306 305 304 303 303 304 304 304 304 304 304 304 305 305 306 306 306 306 307 308 307 308 308 307 304 302 303 304 303 303 303 302 302 301 302 302 302 302
320 314 312 315 314 314 315 315 316 316 315 315 315 315 315 314 313 312 311 310 309 309 308 308 307 307 307 307 307 307 307 306 306 305 304 305 305 306 306 306 307 307 307 307 307 306 306 305 306 306 305 304 304 303 303 303 303 302 302 304 306 307 309 309 309 309 308 308 309 308 307 309 308 304 303 304 305 305 304 304 304 303 302 303 303 303 303 302
313 313 316 317 315 316 318 317 316 316 316 317 316 314 313 312 312 311 310 309 308 308 307 307 307 307 307 308 307 307 306 306 306 305 304 304 305 305 306 306 307 307 306 306 306 306 306 306 306 305 304 304 304 303 302 303 304 304 304 305 307 309 310 310 310 309 308 308 308 307 308 309 306 304 305 305 305 305 306 306 306 305 305 305 305 304 304 303
313 317 319 318 317 318 318 317 317 318 317 317 315 313 311 311 310 309 308 308 307 307 307 307 307 308 308 308 307 307 306 305 305 304 304 305 305 305 306 306 306 306 306 306 306 307 307 307 308 307 306 306 306 305 304 305 308 308 308 309 310 311 311 310 309 308 307 308 308 307 307 306 304 304 305 303 304 306 307 306 305 305 306 306 305 305 304 303
314 318 321 319 318 318 318 318 318 318 316 314 312 311 310 309 309 308 308 308 308 308 307 307 307 307 307 307 307 306 305 305 305 305 305 305 305 305 305 305 305 305 306 306 307 307 308 309 309 309 309 310 310 309 309 309 311 311 310 311 312 312 311 309 308 307 307 308 308 307 306 305 305 305 303 303 305 306 305 304 304 305 305 305 304 304 303 303
317 320 320 317 316 316 316 317 316 315 313 312 311 310 310 310 310 310 309 309 309 308 307 307 307 307 307 306 306 306 305 305 304 304 304 303 303 304 304 305 305 306 307 307 307 308 308 310 309 310 312 313 312 312 312 311 312 312 311 312 312 311 311 309 308 308 307 307 307 306 305 305 306 304 304 306 307 306 305 305 305 304 304 304 304 303 304 305
318 319 316 314 315 315 314 314 314 312 312 312 311 311 312 312 312 311 310 309 308 307 307 306 306 306 306 306 305 305 304 303 303 303 302 303 303 304 305 306 307 307 308 308 308 308 309 310 310 311 313 313 312 312 312 311 312 312 312 313 312 311 311 310 310 309 308 307 307 306 306 306 306 306 307 309 308 307 307 307 306 306 306 306 306 306 307 307
316 316 314 313 314 314 313 314 314 313 314 315 314 314 314 313 311 310 309 307 306 306 306 306 307 307 306 306 305 304 303 303 303 303 303 305 305 306 307 308 308 309 309 309 309 309 310 311 311 312 314 313 312 313 312 311 311 312 313 313 313 312 312 311 311 309 308 308 307 308 308 309 309 309 310 310 309 309 309 309 310 310 310 309 308 308 308 307
314 314 314 314 315 316 317 318 318 318 318 317 315 314 312 311 309 309 308 307 307 307 307 308 308 308 307 306 306 305 305 305 306 306 307 307 307 308 308 309 309 310 310 310 311 311 312 313 313 313 314 313 313 313 311 311 312 312 313 313 313 313 312 312 312 311 310 310 310 311 312 312 311 312 312 312 312 312 312 312 312 312 310 309 309 308 308 308
314 316 318 320 321 322 322 321 320 318 316 315 313 312 311 310 309 309 308 308 309 310 310 310 310 310 309 309 310 310 310 310 310 310 309 309 309 309 310 311 311 312 313 313 314 314 314 315 314 315 316 314 314 313 311 311 312 312 314 315 314 314 313 313 313 311 311 311 311 312 312 312 311 312 313 314 315 315 314 313 312 311 310 310 310 310 310 309
321 323 324 325 324 322 320 318 317 315 313 312 311 311 311 311 310 311 311 311 312 312 312 313 313 313 314 314 314 314 314 314 313 312 312 312 312 313 314 314 315 316 316 316 317 316 316 316 315 316 317 316 315 314 313 312 313 314 317 318 315 314 314 315 314 313 313 312 313 314 314 313 313 314 315 316 317 316 316 314 313 313 313 312 312 311 310 309
327 326 325 322 320 318 316 315 314 313 311 311 311 311 311 312 312 313 314 314 314 315 315 316 316 316 316 316 315 315 315 315 314 315 315 316 317 317 317 318 318 319 319 319 318 317 316 316 316 316 317 317 316 315 315 315 315 316 319 320 317 316 316 315 314 314 314 315 316 317 318 317 318 318 318 318 317 317 318 317 316 315 314 313 312 311 311 311